This demonstration page uses our WeatherBlox Daily Observations layout. Learn more.

39.29038, -76.61219

Hourly Observations for July 5, 2017

Temp ( °F °C ) Dew Point ( °F °C ) Humidity (%) Winds ( mph kmh ) Pressure ( in mb ) Visibility ( mi km ) Precip ( " mm )
12:54 am 00:54 undefined 79 26.1 71 21.7 77 77 undefined N/A 30.06 1018 N/A 0 0
1:54 am 01:54 undefined 78 25.6 70 21.1 76 76 undefined N/A 30.06 1018 N/A 0 0
2:54 am 02:54 undefined 78 25.6 68 20 71 71 undefined N/A 30.06 1018 N/A 0 0
3:54 am 03:54 undefined 77 25 68 20 74 74 undefined N/A 30.06 1018 N/A 0 0
4:54 am 04:54 undefined 77 25 69 20.6 77 77 undefined N/A 30.06 1018 N/A 0 0
5:54 am 05:54 undefined 77 25 70 21.1 79 79 undefined N/A 30.09 1019 N/A 0 0
6:54 am 06:54 undefined 77 25 70 21.1 79 79 undefined N/A 30.09 1019 N/A 0 0
7:54 am 07:54 undefined 77 25 70 21.1 79 79 undefined N/A 30.12 1020 N/A 0 0
8:54 am 08:54 undefined 79 26.1 70 21.1 74 74 undefined N/A 30.12 1020 N/A 0 0
9:54 am 09:54 undefined 80 26.7 71 21.7 74 74 undefined N/A 30.12 1020 N/A 0 0
10:54 am 10:54 undefined 83 28.3 71 21.7 67 67 undefined N/A 30.12 1020 N/A 0 0
11:54 am 11:54 undefined 84 28.9 70 21.1 63 63 undefined N/A 30.12 1020 N/A 0 0
12:54 pm 12:54 undefined 85 29.4 71 21.7 63 63 undefined N/A 30.12 1020 N/A 0 0
1:54 pm 13:54 undefined 86 30 70 21.1 59 59 undefined N/A 30.12 1020 N/A 0 0
2:54 pm 14:54 undefined 86 30 66 18.9 51 51 undefined N/A 30.12 1020 N/A 0 0
3:54 pm 15:54 undefined 86 30 65 18.3 49 49 undefined N/A 30.12 1020 N/A 0 0
4:54 pm 16:54 undefined 85 29.4 64 17.8 50 50 undefined N/A 30.09 1019 N/A 0 0
5:54 pm 17:54 undefined 84 28.9 63 17.2 49 49 undefined N/A 30.09 1019 N/A 0 0
6:54 pm 18:54 undefined 83 28.3 63 17.2 51 51 undefined N/A 30.09 1019 N/A 0 0
7:54 pm 19:54 undefined 82 27.8 64 17.8 55 55 undefined N/A 30.09 1019 N/A 0 0
8:54 pm 20:54 undefined 81 27.2 66 18.9 61 61 undefined N/A 30.12 1020 N/A 0 0
9:54 pm 21:54 undefined 79 26.1 68 20 69 69 undefined N/A 30.12 1020 N/A 0 0
10:54 pm 22:54 undefined 77 25 70 21.1 79 79 undefined N/A 30.12 1020 N/A 0 0
11:54 pm 23:54 undefined 77 25 70 21.1 79 79 undefined N/A 30.12 1020 N/A 0 0

Powered by AerisWeather